User: anonymous   Login
Location: Innerarity Island Observatory
(30.3139°N, 87.4867°W)
Time: 00:50:51
(UTC-06:00)
Language:

OPAL - Orbit

View from above orbital plane
View from above orbital plane
View from above satellite
View from above satellite

Ground track
Ground track

The orbit data is extracted from the following two-line orbital elements,

1 26063U 00004C   15058.51488341  .00000148  00000-0  70125-4 0  9996
2 26063 100.2281 256.8649 0036803 157.8844 202.3934 14.36500584790689
Epoch (UTC): 27 February 2015 12:21:25
Eccentricity: 0.0036803
inclination: 100.2281°
perigee height: 744 km
apogee height: 796 km
right ascension of ascending node: 256.8649°
argument of perigee: 157.8844°
revolutions per day: 14.36500584
mean anomaly at epoch: 202.3934°
orbit number at epoch: 79068

The dashed part of the orbit path shows where the satellite is in the earth's shadow,  

DLR